Regional Weather Roundup
Issued by NWS

Home | Current Version | Previous Version | Text Only | Print | Product List | Glossary Off
Versions: 1 2 3 4 5 6 7 8 9 10 11 12 13 14 15 16 17 18 19 20 21 22 23 24 25 26 27 28 29 30 31 32 33 34 35 36 37 38 39 40 41 42 43 44 45 46 47 48 49 50

000
ASUS43 KBIS 191059
RWRND

NORTH DAKOTA REGIONAL WEATHER ROUNDUP
NATIONAL WEATHER SERVICE BISMARCK ND
600 AM CDT FRI SEP 19 2014

NOTE: "FAIR" INDICATES FEW OR NO CLOUDS BELOW 12,000 FEET WITH NO
SIGNIFICANT WEATHER AND/OR OBSTRUCTIONS TO VISIBILITY.


NDZ001>003-009>011-017-191200-
NORTHWEST NORTH DAKOTA

CITY           SKY/WX    TMP DP  RH WIND       PRES   REMARKS
WILLISTON      CLOUDY    65  53  65 W13       29.57R
MINOT          CLOUDY    65  54  67 SW9       29.52R
$$

NDZ018>021-031>035-040>046-191200-
SOUTHWEST NORTH DAKOTA

CITY           SKY/WX    TMP DP  RH WIND       PRES   REMARKS
BISMARCK       CLOUDY    68  61  78 SW13      29.62R
GARRISON         N/A     62  58  86 S3        29.57R
HETTINGER ARPT CLOUDY    59  55  87 NW6       29.69F
$$

NDZ004>008-012>016-024-026-027-054-191200-
NORTHEAST NORTH DAKOTA

CITY           SKY/WX    TMP DP  RH WIND       PRES   REMARKS
GRAND FORKS    LGT RAIN  64  57  78 S16       29.57F
DEVILS LAKE    CLOUDY    66  57  72 SW14G22   29.52F
$$

NDZ022-023-025-028>030-036>039-047>053-191200-
SOUTHEAST NORTH DAKOTA

CITY           SKY/WX    TMP DP  RH WIND       PRES   REMARKS
FARGO          CLOUDY    64  56  75 S20G28    29.67F
$$



USA.gov is the U.S. government's official web portal to all federal, state and local government web resources and services.